Year,Month,Day,Hour,Minute,Value (Times are PST for temperature in C)
2010,08,12,00,00,14.10
2010,08,12,00,01,14.00
2010,08,12,00,02,14.00
2010,08,12,00,03,14.00
2010,08,12,00,04,13.90
2010,08,12,00,05,13.90
2010,08,12,00,06,13.90
2010,08,12,00,07,13.90
2010,08,12,00,08,13.80
2010,08,12,00,09,13.80
2010,08,12,00,10,13.80
2010,08,12,00,11,13.80
2010,08,12,00,12,13.80
2010,08,12,00,13,13.80
2010,08,12,00,14,13.80
2010,08,12,00,15,13.80
2010,08,12,00,16,13.80
2010,08,12,00,17,13.80
2010,08,12,00,18,13.80
2010,08,12,00,19,13.80
2010,08,12,00,20,13.80
2010,08,12,00,21,13.80
2010,08,12,00,22,13.80
2010,08,12,00,23,13.80
2010,08,12,00,24,13.80
2010,08,12,00,25,13.80
2010,08,12,00,26,13.80
2010,08,12,00,27,13.80
2010,08,12,00,28,13.80
2010,08,12,00,29,13.80
2010,08,12,00,30,13.80
2010,08,12,00,31,13.80
2010,08,12,00,32,13.80
2010,08,12,00,33,13.70
2010,08,12,00,34,13.70
2010,08,12,00,35,13.70
2010,08,12,00,36,13.70
2010,08,12,00,37,13.60
2010,08,12,00,38,13.60
2010,08,12,00,39,13.60
2010,08,12,00,40,13.60
2010,08,12,00,41,13.60
2010,08,12,00,42,13.50
2010,08,12,00,43,13.50
2010,08,12,00,44,13.50
2010,08,12,00,45,13.50
2010,08,12,00,46,13.50
2010,08,12,00,47,13.50
2010,08,12,00,48,13.50
2010,08,12,00,49,13.50
2010,08,12,00,50,13.50
2010,08,12,00,51,13.50
2010,08,12,00,52,13.50
2010,08,12,00,53,13.50
2010,08,12,00,54,13.50
2010,08,12,00,55,13.50
2010,08,12,00,56,13.50
2010,08,12,00,57,13.50
2010,08,12,00,58,13.50
2010,08,12,00,59,13.50
2010,08,12,01,00,13.50
2010,08,12,01,01,13.50
2010,08,12,01,02,13.50
2010,08,12,01,03,13.40
2010,08,12,01,04,13.40
2010,08,12,01,05,13.40
2010,08,12,01,06,13.40
2010,08,12,01,07,13.40
2010,08,12,01,08,13.40
2010,08,12,01,09,13.40
2010,08,12,01,10,13.40
2010,08,12,01,11,13.40
2010,08,12,01,12,13.30
2010,08,12,01,13,13.30
2010,08,12,01,14,13.30
2010,08,12,01,15,13.30
2010,08,12,01,16,13.30
2010,08,12,01,17,13.20
2010,08,12,01,18,13.20
2010,08,12,01,19,13.20
2010,08,12,01,20,13.20
2010,08,12,01,21,13.20
2010,08,12,01,22,13.20
2010,08,12,01,23,13.20
2010,08,12,01,24,13.20
2010,08,12,01,25,13.20
2010,08,12,01,26,13.20
2010,08,12,01,27,13.10
2010,08,12,01,28,13.10
2010,08,12,01,29,13.10
2010,08,12,01,30,13.10
2010,08,12,01,31,13.10
2010,08,12,01,32,13.10
2010,08,12,01,33,13.00
2010,08,12,01,34,13.00
2010,08,12,01,35,13.00
2010,08,12,01,36,13.00
2010,08,12,01,37,13.00
2010,08,12,01,38,13.00
2010,08,12,01,39,13.00
2010,08,12,01,40,13.00
2010,08,12,01,41,13.00
2010,08,12,01,42,13.00
2010,08,12,01,43,12.90
2010,08,12,01,44,12.90
2010,08,12,01,45,12.90
2010,08,12,01,46,12.90
2010,08,12,01,47,12.90
2010,08,12,01,48,12.90
2010,08,12,01,49,12.90
2010,08,12,01,50,12.90
2010,08,12,01,51,12.90
2010,08,12,01,52,12.90
2010,08,12,01,53,12.90
2010,08,12,01,54,12.80
2010,08,12,01,55,12.80
2010,08,12,01,56,12.80
2010,08,12,01,57,12.80
2010,08,12,01,58,12.80
2010,08,12,01,59,12.70
2010,08,12,02,00,12.70
2010,08,12,02,01,12.70
2010,08,12,02,02,12.70
2010,08,12,02,03,12.70
2010,08,12,02,04,12.70
2010,08,12,02,05,12.80
2010,08,12,02,06,12.80
2010,08,12,02,07,12.80
2010,08,12,02,08,12.80
2010,08,12,02,09,12.80
2010,08,12,02,10,12.80
2010,08,12,02,11,12.80
2010,08,12,02,12,12.80
2010,08,12,02,13,12.80
2010,08,12,02,14,12.80
2010,08,12,02,15,12.80
2010,08,12,02,16,12.80
2010,08,12,02,17,12.80
2010,08,12,02,18,12.80
2010,08,12,02,19,12.80
2010,08,12,02,20,12.70
2010,08,12,02,21,12.70
2010,08,12,02,22,12.70
2010,08,12,02,23,12.70
2010,08,12,02,24,12.70
2010,08,12,02,25,12.70
2010,08,12,02,26,12.60
2010,08,12,02,27,12.60
2010,08,12,02,28,12.60
2010,08,12,02,29,12.60
2010,08,12,02,30,12.60
2010,08,12,02,31,12.60
2010,08,12,02,32,12.60
2010,08,12,02,33,12.60
2010,08,12,02,34,12.60
2010,08,12,02,35,12.60
2010,08,12,02,36,12.60
2010,08,12,02,37,12.60
2010,08,12,02,38,12.60
2010,08,12,02,39,12.60
2010,08,12,02,40,12.60
2010,08,12,02,41,12.60
2010,08,12,02,42,12.60
2010,08,12,02,43,12.60
2010,08,12,02,44,12.60
2010,08,12,02,45,12.60
2010,08,12,02,46,12.60
2010,08,12,02,47,12.60
2010,08,12,02,48,12.60
2010,08,12,02,49,12.60
2010,08,12,02,50,12.60
2010,08,12,02,51,12.60
2010,08,12,02,52,12.60
2010,08,12,02,53,12.60
2010,08,12,02,54,12.60
2010,08,12,02,55,12.60
2010,08,12,02,56,12.50
2010,08,12,02,57,12.50
2010,08,12,02,58,12.50
2010,08,12,02,59,12.50
2010,08,12,03,00,12.60
2010,08,12,03,01,12.60
2010,08,12,03,02,12.60
2010,08,12,03,03,12.60
2010,08,12,03,04,12.50
2010,08,12,03,05,12.50
2010,08,12,03,06,12.50
2010,08,12,03,07,12.60
2010,08,12,03,08,12.60
2010,08,12,03,09,12.60
2010,08,12,03,10,12.60
2010,08,12,03,11,12.60
2010,08,12,03,12,12.60
2010,08,12,03,13,12.60
2010,08,12,03,14,12.60
2010,08,12,03,15,12.60
2010,08,12,03,16,12.60
2010,08,12,03,17,12.60
2010,08,12,03,18,12.60
2010,08,12,03,19,12.60
2010,08,12,03,20,12.60
2010,08,12,03,21,12.60
2010,08,12,03,22,12.60
2010,08,12,03,23,12.60
2010,08,12,03,24,12.60
2010,08,12,03,25,12.60
2010,08,12,03,26,12.60
2010,08,12,03,27,12.60
2010,08,12,03,28,12.60
2010,08,12,03,29,12.70
2010,08,12,03,30,12.60
2010,08,12,03,31,12.60
2010,08,12,03,32,12.60
2010,08,12,03,33,12.60
2010,08,12,03,34,12.60
2010,08,12,03,35,12.60
2010,08,12,03,36,12.60
2010,08,12,03,37,12.50
2010,08,12,03,38,12.50
2010,08,12,03,39,12.50
2010,08,12,03,40,12.40
2010,08,12,03,41,12.40
2010,08,12,03,42,12.40
2010,08,12,03,43,12.40
2010,08,12,03,44,12.40
2010,08,12,03,45,12.40
2010,08,12,03,46,12.40
2010,08,12,03,47,12.40
2010,08,12,03,48,12.40
2010,08,12,03,49,12.50
2010,08,12,03,50,12.50
2010,08,12,03,51,12.50
2010,08,12,03,52,12.50
2010,08,12,03,53,12.50
2010,08,12,03,54,12.50
2010,08,12,03,55,12.50
2010,08,12,03,56,12.50
2010,08,12,03,57,12.50
2010,08,12,03,58,12.50
2010,08,12,03,59,12.50
2010,08,12,04,00,12.50
2010,08,12,04,01,12.50
2010,08,12,04,02,12.50
2010,08,12,04,03,12.50
2010,08,12,04,04,12.60
2010,08,12,04,05,12.60
2010,08,12,04,06,12.60
2010,08,12,04,07,12.50
2010,08,12,04,08,12.50
2010,08,12,04,09,12.50
2010,08,12,04,10,12.40
2010,08,12,04,11,12.40
2010,08,12,04,12,12.40
2010,08,12,04,13,12.40
2010,08,12,04,14,12.40
2010,08,12,04,15,12.40
2010,08,12,04,16,12.40
2010,08,12,04,17,12.40
2010,08,12,04,18,12.40
2010,08,12,04,19,12.40
2010,08,12,04,20,12.40
2010,08,12,04,21,12.40
2010,08,12,04,22,12.40
2010,08,12,04,23,12.40
2010,08,12,04,24,12.40
2010,08,12,04,25,12.40
2010,08,12,04,26,12.40
2010,08,12,04,27,12.40
2010,08,12,04,28,12.50
2010,08,12,04,29,12.50
2010,08,12,04,30,12.50
2010,08,12,04,31,12.50
2010,08,12,04,32,12.40
2010,08,12,04,33,12.40
2010,08,12,04,34,12.40
2010,08,12,04,35,12.40
2010,08,12,04,36,12.40
2010,08,12,04,37,12.40
2010,08,12,04,38,12.50
2010,08,12,04,39,12.50
2010,08,12,04,40,12.50
2010,08,12,04,41,12.50
2010,08,12,04,42,12.50
2010,08,12,04,43,12.50
2010,08,12,04,44,12.60
2010,08,12,04,45,12.50
2010,08,12,04,46,12.50
2010,08,12,04,47,12.50
2010,08,12,04,48,12.50
2010,08,12,04,49,12.40
2010,08,12,04,50,12.40
2010,08,12,04,51,12.40
2010,08,12,04,52,12.40
2010,08,12,04,53,12.40
2010,08,12,04,54,12.40
2010,08,12,04,55,12.40
2010,08,12,04,56,12.40
2010,08,12,04,57,12.40
2010,08,12,04,58,12.40
2010,08,12,04,59,12.40
2010,08,12,05,00,12.40
2010,08,12,05,01,12.40
2010,08,12,05,02,12.40
2010,08,12,05,03,12.50
2010,08,12,05,04,12.50
2010,08,12,05,05,12.50
2010,08,12,05,06,12.40
2010,08,12,05,07,12.40
2010,08,12,05,08,12.40
2010,08,12,05,09,12.40
2010,08,12,05,10,12.40
2010,08,12,05,11,12.40
2010,08,12,05,12,12.40
2010,08,12,05,13,12.40
2010,08,12,05,14,12.40
2010,08,12,05,15,12.40
2010,08,12,05,16,12.40
2010,08,12,05,17,12.40
2010,08,12,05,18,12.40
2010,08,12,05,19,12.40
2010,08,12,05,20,12.40
2010,08,12,05,21,12.40
2010,08,12,05,22,12.40
2010,08,12,05,23,12.40
2010,08,12,05,24,12.40
2010,08,12,05,25,12.40
2010,08,12,05,26,12.40
2010,08,12,05,27,12.50
2010,08,12,05,28,12.50
2010,08,12,05,29,12.50
2010,08,12,05,30,12.40
2010,08,12,05,31,12.40
2010,08,12,05,32,12.40
2010,08,12,05,33,12.40
2010,08,12,05,34,12.40
2010,08,12,05,35,12.40
2010,08,12,05,36,12.40
2010,08,12,05,37,12.40
2010,08,12,05,38,12.30
2010,08,12,05,39,12.30
2010,08,12,05,40,12.30
2010,08,12,05,41,12.30
2010,08,12,05,42,12.40
2010,08,12,05,43,12.40
2010,08,12,05,44,12.40
2010,08,12,05,45,12.40
2010,08,12,05,46,12.40
2010,08,12,05,47,12.40
2010,08,12,05,48,12.40
2010,08,12,05,49,12.30
2010,08,12,05,50,12.30
2010,08,12,05,51,12.30
2010,08,12,05,52,12.30
2010,08,12,05,53,12.30
2010,08,12,05,54,12.30
2010,08,12,05,55,12.30
2010,08,12,05,56,12.30
2010,08,12,05,57,12.30
2010,08,12,05,58,12.30
2010,08,12,05,59,12.30
2010,08,12,06,00,12.30
2010,08,12,06,01,12.30
2010,08,12,06,02,12.30
2010,08,12,06,03,12.30
2010,08,12,06,04,12.30
2010,08,12,06,05,12.20
2010,08,12,06,06,12.20
2010,08,12,06,07,12.20
2010,08,12,06,08,12.20
2010,08,12,06,09,12.20
2010,08,12,06,10,12.20
2010,08,12,06,11,12.20
2010,08,12,06,12,12.20
2010,08,12,06,13,12.20
2010,08,12,06,14,12.20
2010,08,12,06,15,12.30
2010,08,12,06,16,12.30
2010,08,12,06,17,12.30
2010,08,12,06,18,12.30
2010,08,12,06,19,12.30
2010,08,12,06,20,12.30
2010,08,12,06,21,12.30
2010,08,12,06,22,12.30
2010,08,12,06,23,12.30
2010,08,12,06,24,12.30
2010,08,12,06,25,12.30
2010,08,12,06,26,12.30
2010,08,12,06,27,12.40
2010,08,12,06,28,12.40
2010,08,12,06,29,12.40
2010,08,12,06,30,12.40
2010,08,12,06,31,12.50
2010,08,12,06,32,12.50
2010,08,12,06,33,12.50
2010,08,12,06,34,12.60
2010,08,12,06,35,12.60
2010,08,12,06,36,12.60
2010,08,12,06,37,12.60
2010,08,12,06,38,12.60
2010,08,12,06,39,12.60
2010,08,12,06,40,12.70
2010,08,12,06,41,12.70
2010,08,12,06,42,12.70
2010,08,12,06,43,12.70
2010,08,12,06,44,12.70
2010,08,12,06,45,12.70
2010,08,12,06,46,12.80
2010,08,12,06,47,12.80
2010,08,12,06,48,12.80
2010,08,12,06,49,12.80
2010,08,12,06,50,12.80
2010,08,12,06,51,12.80
2010,08,12,06,52,12.80
2010,08,12,06,53,12.80
2010,08,12,06,54,12.80
2010,08,12,06,55,12.80
2010,08,12,06,56,12.80
2010,08,12,06,57,12.80
2010,08,12,06,58,12.80
2010,08,12,06,59,12.80
2010,08,12,07,00,12.80
2010,08,12,07,01,12.80
2010,08,12,07,02,12.80
2010,08,12,07,03,12.80
2010,08,12,07,04,12.80
2010,08,12,07,05,12.80
2010,08,12,07,06,12.80
2010,08,12,07,07,12.80
2010,08,12,07,08,12.80
2010,08,12,07,09,12.80
2010,08,12,07,10,12.80
2010,08,12,07,11,12.80
2010,08,12,07,12,12.80
2010,08,12,07,13,12.90
2010,08,12,07,14,12.90
2010,08,12,07,15,12.90
2010,08,12,07,16,12.90
2010,08,12,07,17,12.90
2010,08,12,07,18,12.90
2010,08,12,07,19,12.90
2010,08,12,07,20,12.90
2010,08,12,07,21,12.90
2010,08,12,07,22,12.90
2010,08,12,07,23,12.90
2010,08,12,07,24,12.90
2010,08,12,07,25,12.90
2010,08,12,07,26,13.00
2010,08,12,07,27,13.00
2010,08,12,07,28,13.00
2010,08,12,07,29,13.00
2010,08,12,07,30,13.10
2010,08,12,07,31,13.10
2010,08,12,07,32,13.10
2010,08,12,07,33,13.20
2010,08,12,07,34,13.20
2010,08,12,07,35,13.20
2010,08,12,07,36,13.20
2010,08,12,07,37,13.30
2010,08,12,07,38,13.30
2010,08,12,07,39,13.30
2010,08,12,07,40,13.40
2010,08,12,07,41,13.40
2010,08,12,07,42,13.40
2010,08,12,07,43,13.40
2010,08,12,07,44,13.40
2010,08,12,07,45,13.50
2010,08,12,07,46,13.60
2010,08,12,07,47,13.70
2010,08,12,07,48,13.70
2010,08,12,07,49,13.70
2010,08,12,07,50,13.70
2010,08,12,07,51,13.70
2010,08,12,07,52,13.70
2010,08,12,07,53,13.80
2010,08,12,07,54,13.80
2010,08,12,07,55,13.80
2010,08,12,07,56,13.80
2010,08,12,07,57,13.80
2010,08,12,07,58,13.80
2010,08,12,07,59,13.90
2010,08,12,08,00,13.90
2010,08,12,08,01,13.90
2010,08,12,08,02,13.90
2010,08,12,08,03,13.90
2010,08,12,08,04,14.00
2010,08,12,08,05,14.00
2010,08,12,08,06,14.00
2010,08,12,08,07,14.00
2010,08,12,08,08,14.00
2010,08,12,08,09,14.10
2010,08,12,08,10,14.10
2010,08,12,08,11,14.10
2010,08,12,08,12,14.10
2010,08,12,08,13,14.10
2010,08,12,08,14,14.20
2010,08,12,08,15,14.20
2010,08,12,08,16,14.20
2010,08,12,08,17,14.20
2010,08,12,08,18,14.30
2010,08,12,08,19,14.30
2010,08,12,08,20,14.20
2010,08,12,08,21,14.20
2010,08,12,08,22,14.20
2010,08,12,08,23,14.20
2010,08,12,08,24,14.20
2010,08,12,08,25,14.20
2010,08,12,08,26,14.20
2010,08,12,08,27,14.20
2010,08,12,08,28,14.20
2010,08,12,08,29,14.30
2010,08,12,08,30,14.30
2010,08,12,08,31,14.30
2010,08,12,08,32,14.30
2010,08,12,08,33,14.30
2010,08,12,08,34,14.40
2010,08,12,08,35,14.40
2010,08,12,08,36,14.50
2010,08,12,08,37,14.50
2010,08,12,08,38,14.60
2010,08,12,08,39,14.60
2010,08,12,08,40,14.70
2010,08,12,08,41,14.80
2010,08,12,08,42,14.80
2010,08,12,08,43,14.90
2010,08,12,08,44,15.00
2010,08,12,08,45,15.00
2010,08,12,08,46,15.00
2010,08,12,08,47,15.00
2010,08,12,08,48,15.10
2010,08,12,08,49,15.20
2010,08,12,08,50,15.30
2010,08,12,08,51,15.30
2010,08,12,08,52,15.40
2010,08,12,08,53,15.50
2010,08,12,08,54,15.60
2010,08,12,08,55,15.70
2010,08,12,08,56,15.80
2010,08,12,08,57,15.80
2010,08,12,08,58,15.80
2010,08,12,08,59,15.80
2010,08,12,09,00,15.90
2010,08,12,09,01,15.90
2010,08,12,09,02,16.00
2010,08,12,09,03,16.00
2010,08,12,09,04,16.10
2010,08,12,09,05,16.10
2010,08,12,09,06,16.10
2010,08,12,09,07,16.10
2010,08,12,09,08,16.10
2010,08,12,09,09,16.10
2010,08,12,09,10,16.20
2010,08,12,09,11,16.20
2010,08,12,09,12,16.20
2010,08,12,09,13,16.20
2010,08,12,09,14,16.30
2010,08,12,09,15,16.30
2010,08,12,09,16,16.40
2010,08,12,09,17,16.50
2010,08,12,09,18,16.50
2010,08,12,09,19,16.60
2010,08,12,09,20,16.70
2010,08,12,09,21,16.70
2010,08,12,09,22,16.80
2010,08,12,09,23,16.80
2010,08,12,09,24,16.90
2010,08,12,09,25,16.90
2010,08,12,09,26,17.00
2010,08,12,09,27,17.00
2010,08,12,09,28,17.10
2010,08,12,09,29,17.10
2010,08,12,09,30,17.10
2010,08,12,09,31,17.20
2010,08,12,09,32,17.20
2010,08,12,09,33,17.20
2010,08,12,09,34,17.30
2010,08,12,09,35,17.40
2010,08,12,09,36,17.50
2010,08,12,09,37,17.70
2010,08,12,09,38,17.70
2010,08,12,09,39,17.80
2010,08,12,09,40,17.90
2010,08,12,09,41,18.00
2010,08,12,09,42,18.00
2010,08,12,09,43,18.10
2010,08,12,09,44,18.10
2010,08,12,09,45,18.20
2010,08,12,09,46,18.30
2010,08,12,09,47,18.40
2010,08,12,09,48,18.40
2010,08,12,09,49,18.50
2010,08,12,09,50,18.60
2010,08,12,09,51,18.60
2010,08,12,09,52,18.60
2010,08,12,09,53,18.60
2010,08,12,09,54,18.50
2010,08,12,09,55,18.50
2010,08,12,09,56,18.50
2010,08,12,09,57,18.60
2010,08,12,09,58,18.60
2010,08,12,09,59,18.70
2010,08,12,10,00,18.80
2010,08,12,10,01,18.80
2010,08,12,10,02,18.90
2010,08,12,10,03,18.90
2010,08,12,10,04,18.90
2010,08,12,10,05,18.90
2010,08,12,10,06,18.90
2010,08,12,10,07,18.90
2010,08,12,10,08,18.90
2010,08,12,10,09,18.90
2010,08,12,10,10,18.90
2010,08,12,10,11,18.90
2010,08,12,10,12,19.00
2010,08,12,10,13,19.00
2010,08,12,10,14,19.10
2010,08,12,10,15,19.20
2010,08,12,10,16,19.20
2010,08,12,10,17,19.20
2010,08,12,10,18,19.30
2010,08,12,10,19,19.30
2010,08,12,10,20,19.40
2010,08,12,10,21,19.40
2010,08,12,10,22,19.50
2010,08,12,10,23,19.60
2010,08,12,10,24,19.70
2010,08,12,10,25,19.70
2010,08,12,10,26,19.80
2010,08,12,10,27,19.80
2010,08,12,10,28,19.90
2010,08,12,10,29,19.90
2010,08,12,10,30,19.90
2010,08,12,10,31,19.80
2010,08,12,10,32,19.90
2010,08,12,10,33,19.90
2010,08,12,10,34,19.90
2010,08,12,10,35,19.90
2010,08,12,10,36,19.90
2010,08,12,10,37,19.90
2010,08,12,10,38,20.00
2010,08,12,10,39,20.00
2010,08,12,10,40,19.80
2010,08,12,10,41,19.70
2010,08,12,10,42,19.60
2010,08,12,10,43,19.50
2010,08,12,10,44,19.50
2010,08,12,10,45,19.50
2010,08,12,10,46,19.60
2010,08,12,10,47,19.60
2010,08,12,10,48,19.70
2010,08,12,10,49,19.70
2010,08,12,10,50,19.90
2010,08,12,10,51,20.00
2010,08,12,10,52,20.00
2010,08,12,10,53,20.10
2010,08,12,10,54,20.10
2010,08,12,10,55,20.20
2010,08,12,10,56,20.30
2010,08,12,10,57,20.40
2010,08,12,10,58,20.40
2010,08,12,10,59,20.40
2010,08,12,11,00,20.30
2010,08,12,11,01,20.30
2010,08,12,11,02,20.30
2010,08,12,11,03,20.20
2010,08,12,11,04,20.20
2010,08,12,11,05,20.10
2010,08,12,11,06,20.10
2010,08,12,11,07,20.10
2010,08,12,11,08,20.10
2010,08,12,11,09,20.00
2010,08,12,11,10,20.00
2010,08,12,11,11,19.90
2010,08,12,11,12,19.90
2010,08,12,11,13,19.90
2010,08,12,11,14,19.90
2010,08,12,11,15,19.80
2010,08,12,11,16,19.80
2010,08,12,11,17,19.80
2010,08,12,11,18,19.80
2010,08,12,11,19,19.80
2010,08,12,11,20,19.80
2010,08,12,11,21,19.80
2010,08,12,11,22,19.80
2010,08,12,11,23,19.80
2010,08,12,11,24,19.60
2010,08,12,11,25,19.50
2010,08,12,11,26,19.40
2010,08,12,11,27,19.40
2010,08,12,11,28,19.40
2010,08,12,11,29,19.50
2010,08,12,11,30,19.60
2010,08,12,11,31,19.60
2010,08,12,11,32,19.70
2010,08,12,11,33,19.80
2010,08,12,11,34,19.80
2010,08,12,11,35,19.90
2010,08,12,11,36,20.00
2010,08,12,11,37,20.10
2010,08,12,11,38,20.30
2010,08,12,11,39,20.40
2010,08,12,11,40,20.60
2010,08,12,11,41,20.70
2010,08,12,11,42,20.70
2010,08,12,11,43,20.70
2010,08,12,11,44,20.70
2010,08,12,11,45,20.70
2010,08,12,11,46,20.60
2010,08,12,11,47,20.60
2010,08,12,11,48,20.60
2010,08,12,11,49,20.50
2010,08,12,11,50,20.40
2010,08,12,11,51,20.40
2010,08,12,11,52,20.50
2010,08,12,11,53,20.60
2010,08,12,11,54,20.70
2010,08,12,11,55,20.70
2010,08,12,11,56,20.60
2010,08,12,11,57,20.60
2010,08,12,11,58,20.50
2010,08,12,11,59,20.40
2010,08,12,12,00,20.30
2010,08,12,12,01,20.20
2010,08,12,12,02,20.20
2010,08,12,12,03,20.30
2010,08,12,12,04,20.30
2010,08,12,12,05,20.30
2010,08,12,12,06,20.30
2010,08,12,12,07,20.30
2010,08,12,12,08,20.30
2010,08,12,12,09,20.30
2010,08,12,12,10,20.30
2010,08,12,12,11,20.30
2010,08,12,12,12,20.30
2010,08,12,12,13,20.30
2010,08,12,12,14,20.30
2010,08,12,12,15,20.30
2010,08,12,12,16,20.40
2010,08,12,12,17,20.30
2010,08,12,12,18,20.20
2010,08,12,12,19,20.20
2010,08,12,12,20,20.20
2010,08,12,12,21,20.20
2010,08,12,12,22,20.10
2010,08,12,12,23,20.10
2010,08,12,12,24,20.20
2010,08,12,12,25,20.20
2010,08,12,12,26,20.20
2010,08,12,12,27,20.10
2010,08,12,12,28,20.10
2010,08,12,12,29,20.10
2010,08,12,12,30,20.20
2010,08,12,12,31,20.20
2010,08,12,12,32,20.20
2010,08,12,12,33,20.20
2010,08,12,12,34,20.20
2010,08,12,12,35,20.20
2010,08,12,12,36,20.30
2010,08,12,12,37,20.30
2010,08,12,12,38,20.40
2010,08,12,12,39,20.40
2010,08,12,12,40,20.40
2010,08,12,12,41,20.40
2010,08,12,12,42,20.40
2010,08,12,12,43,20.40
2010,08,12,12,44,20.40
2010,08,12,12,45,20.30
2010,08,12,12,46,20.30
2010,08,12,12,47,20.20
2010,08,12,12,48,20.10
2010,08,12,12,49,20.10
2010,08,12,12,50,20.10
2010,08,12,12,51,20.10
2010,08,12,12,52,20.10
2010,08,12,12,53,20.20
2010,08,12,12,54,20.20
2010,08,12,12,55,20.20
2010,08,12,12,56,20.20
2010,08,12,12,57,20.30
2010,08,12,12,58,20.40
2010,08,12,12,59,20.50
2010,08,12,13,00,20.50
2010,08,12,13,01,20.60
2010,08,12,13,02,20.70
2010,08,12,13,03,20.80
2010,08,12,13,04,20.80
2010,08,12,13,05,20.80
2010,08,12,13,06,20.80
2010,08,12,13,07,20.90
2010,08,12,13,08,21.00
2010,08,12,13,09,21.10
2010,08,12,13,10,21.20
2010,08,12,13,11,21.20
2010,08,12,13,12,21.20
2010,08,12,13,13,21.20
2010,08,12,13,14,21.20
2010,08,12,13,15,21.30
2010,08,12,13,16,21.30
2010,08,12,13,17,21.30
2010,08,12,13,18,21.30
2010,08,12,13,19,21.30
2010,08,12,13,20,21.30
2010,08,12,13,21,21.20
2010,08,12,13,22,21.30
2010,08,12,13,23,21.40
2010,08,12,13,24,21.40
2010,08,12,13,25,21.50
2010,08,12,13,26,21.60
2010,08,12,13,27,21.70
2010,08,12,13,28,21.80
2010,08,12,13,29,21.80
2010,08,12,13,30,21.80
2010,08,12,13,31,21.80
2010,08,12,13,32,21.70
2010,08,12,13,33,21.70
2010,08,12,13,34,21.60
2010,08,12,13,35,21.60
2010,08,12,13,36,21.60
2010,08,12,13,37,21.60
2010,08,12,13,38,21.80
2010,08,12,13,39,21.90
2010,08,12,13,40,22.00
2010,08,12,13,41,22.00
2010,08,12,13,42,22.00
2010,08,12,13,43,22.00
2010,08,12,13,44,21.80
2010,08,12,13,45,21.80
2010,08,12,13,46,21.80
2010,08,12,13,47,21.80
2010,08,12,13,48,21.60
2010,08,12,13,49,21.40
2010,08,12,13,50,21.30
2010,08,12,13,51,21.20
2010,08,12,13,52,21.10
2010,08,12,13,53,21.10
2010,08,12,13,54,21.10
2010,08,12,13,55,21.10
2010,08,12,13,56,21.00
2010,08,12,13,57,20.80
2010,08,12,13,58,20.80
2010,08,12,13,59,20.90
2010,08,12,14,00,21.10
2010,08,12,14,01,21.20
2010,08,12,14,02,21.30
2010,08,12,14,03,21.40
2010,08,12,14,04,21.50
2010,08,12,14,05,21.50
2010,08,12,14,06,21.40
2010,08,12,14,07,21.30
2010,08,12,14,08,21.30
2010,08,12,14,09,21.40
2010,08,12,14,10,21.40
2010,08,12,14,11,21.30
2010,08,12,14,12,21.20
2010,08,12,14,13,21.10
2010,08,12,14,14,21.10
2010,08,12,14,15,21.10
2010,08,12,14,16,21.10
2010,08,12,14,17,21.00
2010,08,12,14,18,20.90
2010,08,12,14,19,20.90
2010,08,12,14,20,20.80
2010,08,12,14,21,20.80
2010,08,12,14,22,20.90
2010,08,12,14,23,21.00
2010,08,12,14,24,21.10
2010,08,12,14,25,21.10
2010,08,12,14,26,21.10
2010,08,12,14,27,21.20
2010,08,12,14,28,21.20
2010,08,12,14,29,21.30
2010,08,12,14,30,21.20
2010,08,12,14,31,21.30
2010,08,12,14,32,21.30
2010,08,12,14,33,21.30
2010,08,12,14,34,21.40
2010,08,12,14,35,21.40
2010,08,12,14,36,21.40
2010,08,12,14,37,21.50
2010,08,12,14,38,21.60
2010,08,12,14,39,21.70
2010,08,12,14,40,21.70
2010,08,12,14,41,21.70
2010,08,12,14,42,21.70
2010,08,12,14,43,21.70
2010,08,12,14,44,21.70
2010,08,12,14,45,21.80
2010,08,12,14,46,21.80
2010,08,12,14,47,21.80
2010,08,12,14,48,21.80
2010,08,12,14,49,21.80
2010,08,12,14,50,21.80
2010,08,12,14,51,21.80
2010,08,12,14,52,21.80
2010,08,12,14,53,21.80
2010,08,12,14,54,21.80
2010,08,12,14,55,21.70
2010,08,12,14,56,21.70
2010,08,12,14,57,21.70
2010,08,12,14,58,21.70
2010,08,12,14,59,21.70
2010,08,12,15,00,21.70
2010,08,12,15,01,21.70
2010,08,12,15,02,21.80
2010,08,12,15,03,21.80
2010,08,12,15,04,21.80
2010,08,12,15,05,21.80
2010,08,12,15,06,21.80
2010,08,12,15,07,21.80
2010,08,12,15,08,21.80
2010,08,12,15,09,21.70
2010,08,12,15,10,21.60
2010,08,12,15,11,21.60
2010,08,12,15,12,21.60
2010,08,12,15,13,21.60
2010,08,12,15,14,21.80
2010,08,12,15,15,21.80
2010,08,12,15,16,21.90
2010,08,12,15,17,22.00
2010,08,12,15,18,22.10
2010,08,12,15,19,22.20
2010,08,12,15,20,22.30
2010,08,12,15,21,22.30
2010,08,12,15,22,22.40
2010,08,12,15,23,22.40
2010,08,12,15,24,22.40
2010,08,12,15,25,22.30
2010,08,12,15,26,22.30
2010,08,12,15,27,22.30
2010,08,12,15,28,22.30
2010,08,12,15,29,22.20
2010,08,12,15,30,22.20
2010,08,12,15,31,22.20
2010,08,12,15,32,22.20
2010,08,12,15,33,22.20
2010,08,12,15,34,22.20
2010,08,12,15,35,22.30
2010,08,12,15,36,22.30
2010,08,12,15,37,22.40
2010,08,12,15,38,22.40
2010,08,12,15,39,22.40
2010,08,12,15,40,22.40
2010,08,12,15,41,22.30
2010,08,12,15,42,22.30
2010,08,12,15,43,22.30
2010,08,12,15,44,22.30
2010,08,12,15,45,22.30
2010,08,12,15,46,22.20
2010,08,12,15,47,22.20
2010,08,12,15,48,22.10
2010,08,12,15,49,22.10
2010,08,12,15,50,22.00
2010,08,12,15,51,22.00
2010,08,12,15,52,22.10
2010,08,12,15,53,22.10
2010,08,12,15,54,22.20
2010,08,12,15,55,22.30
2010,08,12,15,56,22.40
2010,08,12,15,57,22.60
2010,08,12,15,58,22.70
2010,08,12,15,59,22.70
2010,08,12,16,00,22.60
2010,08,12,16,01,22.60
2010,08,12,16,02,22.50
2010,08,12,16,03,22.40
2010,08,12,16,04,22.40
2010,08,12,16,05,22.40
2010,08,12,16,06,22.40
2010,08,12,16,07,22.50
2010,08,12,16,08,22.50
2010,08,12,16,09,22.60
2010,08,12,16,10,22.60
2010,08,12,16,11,22.50
2010,08,12,16,12,22.50
2010,08,12,16,13,22.50
2010,08,12,16,14,22.60
2010,08,12,16,15,22.70
2010,08,12,16,16,22.70
2010,08,12,16,17,22.80
2010,08,12,16,18,22.90
2010,08,12,16,19,23.00
2010,08,12,16,20,23.10
2010,08,12,16,21,23.20
2010,08,12,16,22,23.30
2010,08,12,16,23,23.30
2010,08,12,16,24,23.30
2010,08,12,16,25,23.30
2010,08,12,16,26,23.20
2010,08,12,16,27,23.10
2010,08,12,16,28,23.00
2010,08,12,16,29,22.90
2010,08,12,16,30,22.80
2010,08,12,16,31,22.80
2010,08,12,16,32,22.80
2010,08,12,16,33,22.80
2010,08,12,16,34,22.80
2010,08,12,16,35,22.80
2010,08,12,16,36,22.70
2010,08,12,16,37,22.60
2010,08,12,16,38,22.60
2010,08,12,16,39,22.70
2010,08,12,16,40,22.60
2010,08,12,16,41,22.60
2010,08,12,16,42,22.60
2010,08,12,16,43,22.70
2010,08,12,16,44,22.70
2010,08,12,16,45,22.80
2010,08,12,16,46,22.80
2010,08,12,16,47,22.80
2010,08,12,16,48,22.80
2010,08,12,16,49,22.80
2010,08,12,16,50,22.80
2010,08,12,16,51,22.80
2010,08,12,16,52,22.80
2010,08,12,16,53,22.80
2010,08,12,16,54,22.80
2010,08,12,16,55,22.90
2010,08,12,16,56,22.90
2010,08,12,16,57,22.90
2010,08,12,16,58,22.90
2010,08,12,16,59,23.00
2010,08,12,17,00,23.00
2010,08,12,17,01,23.00
2010,08,12,17,02,23.00
2010,08,12,17,03,23.10
2010,08,12,17,04,23.00
2010,08,12,17,05,23.00
2010,08,12,17,06,22.90
2010,08,12,17,07,22.80
2010,08,12,17,08,22.80
2010,08,12,17,09,22.70
2010,08,12,17,10,22.70
2010,08,12,17,11,22.70
2010,08,12,17,12,22.70
2010,08,12,17,13,22.80
2010,08,12,17,14,22.90
2010,08,12,17,15,23.00
2010,08,12,17,16,23.00
2010,08,12,17,17,23.00
2010,08,12,17,18,23.00
2010,08,12,17,19,23.00